| time (UTC) | temp F | wind direction | speed MPH | gust MPH | rain 1hr in | rain 24hr in | rain mn in | humidity % | barometer mb |
| 20260504235515 | 77 | 203 | 10.0 | 23.0 | 0.00 | 0.00 | 0.00 | 26 | 1011.1 |
| 20260504234515 | 77 | 180 | 10.0 | 19.0 | 0.00 | 0.00 | 0.00 | 25 | 1011.0 |
| 20260504233515 | 78 | 158 | 9.0 | 17.0 | 0.00 | 0.00 | 0.00 | 24 | 1010.8 |
| 20260504232515 | 78 | 180 | 8.0 | 15.0 | 0.00 | 0.00 | 0.00 | 22 | 1010.6 |
| 20260504231535 | 78 | 203 | 7.0 | 14.0 | 0.00 | 0.00 | 0.00 | 22 | 1010.5 |
| 20260504230515 | 78 | 203 | 10.0 | 15.0 | 0.00 | 0.00 | 0.00 | 23 | 1010.8 |
| 20260504225515 | 78 | 158 | 9.0 | 18.0 | 0.00 | 0.00 | 0.00 | 24 | 1011.0 |
| 20260504224516 | 78 | 203 | 10.0 | 16.0 | 0.00 | 0.00 | 0.00 | 22 | 1011.4 |
| 20260504223517 | 77 | 225 | 5.0 | 10.0 | 0.00 | 0.00 | 0.00 | 27 | 1011.4 |
| 20260504222536 | 77 | 248 | 5.0 | 12.0 | 0.00 | 0.00 | 0.00 | 27 | 1011.3 |
| 20260504221515 | 77 | 248 | 10.0 | 15.0 | 0.00 | 0.00 | 0.00 | 27 | 1011.8 |
| 20260504220516 | 77 | 248 | 11.0 | 17.0 | 0.00 | 0.00 | 0.00 | 27 | 1012.1 |
| 20260504215519 | 77 | 270 | 12.0 | 17.0 | 0.00 | 0.00 | 0.00 | 26 | 1012.3 |
| 20260504214515 | 77 | 270 | 9.0 | 15.0 | 0.00 | 0.00 | 0.00 | 26 | 1012.2 |
| 20260504213535 | 77 | 270 | 10.0 | 16.0 | 0.00 | 0.00 | 0.00 | 26 | 1012.2 |
| 20260504212515 | 77 | 270 | 12.0 | 18.0 | 0.00 | 0.00 | 0.00 | 25 | 1012.2 |
| 20260504211516 | 78 | 270 | 12.0 | 18.0 | 0.00 | 0.00 | 0.00 | 26 | 1012.1 |
| 20260504210518 | 78 | 248 | 12.0 | 18.0 | 0.00 | 0.00 | 0.00 | 25 | 1012.2 |
| 20260504205515 | 78 | 248 | 12.0 | 17.0 | 0.00 | 0.00 | 0.00 | 24 | 1012.4 |
| 20260504204535 | 78 | 248 | 10.0 | 16.0 | 0.00 | 0.00 | 0.00 | 25 | 1012.3 |
| 20260504203518 | 78 | 270 | 9.0 | 14.0 | 0.00 | 0.00 | 0.00 | 26 | 1011.9 |
| 20260504202516 | 78 | 270 | 11.0 | 16.0 | 0.00 | 0.00 | 0.00 | 27 | 1012.0 |
| 20260504201515 | 78 | 270 | 11.0 | 18.0 | 0.00 | 0.00 | 0.00 | 27 | 1012.0 |
| 20260504200515 | 78 | 270 | 13.0 | 19.0 | 0.00 | 0.00 | 0.00 | 27 | 1012.1 |
| 20260504195536 | 78 | 248 | 13.0 | 21.0 | 0.00 | 0.00 | 0.00 | 26 | 1012.3 |
| 20260504194515 | 79 | 248 | 13.0 | 22.0 | 0.00 | 0.00 | 0.00 | 25 | 1012.4 |
| 20260504193515 | 78 | 248 | 12.0 | 19.0 | 0.00 | 0.00 | 0.00 | 26 | 1012.0 |
| 20260504192517 | 79 | 248 | 12.0 | 17.0 | 0.00 | 0.00 | 0.00 | 25 | 1012.0 |
| 20260504191516 | 79 | 270 | 9.0 | 14.0 | 0.00 | 0.00 | 0.00 | 25 | 1012.0 |
| 20260504190539 | 79 | 270 | 10.0 | 16.0 | 0.00 | 0.00 | 0.00 | 26 | 1012.0 |
| 20260504185520 | 79 | 248 | 7.0 | 15.0 | 0.00 | 0.00 | 0.00 | 26 | 1011.8 |
| 20260504184519 | 79 | 248 | 9.0 | 15.0 | 0.00 | 0.00 | 0.00 | 27 | 1011.8 |
| 20260504183517 | 78 | 248 | 7.0 | 14.0 | 0.00 | 0.00 | 0.00 | 28 | 1011.7 |
| 20260504182517 | 77 | 248 | 9.0 | 14.0 | 0.00 | 0.00 | 0.00 | 28 | 1011.8 |
| 20260504181538 | 78 | 270 | 9.0 | 15.0 | 0.00 | 0.00 | 0.00 | 30 | 1012.1 |
| 20260504180518 | 78 | 248 | 9.0 | 16.0 | 0.00 | 0.00 | 0.00 | 30 | 1012.4 |
| 20260504175517 | 78 | 248 | 9.0 | 14.0 | 0.00 | 0.00 | 0.00 | 31 | 1012.2 |
| 20260504174518 | 78 | 248 | 8.0 | 13.0 | 0.00 | 0.00 | 0.00 | 30 | 1012.3 |
| 20260504173520 | 77 | 248 | 9.0 | 15.0 | 0.00 | 0.00 | 0.00 | 32 | 1012.3 |
| 20260504172537 | 78 | 225 | 7.0 | 13.0 | 0.00 | 0.00 | 0.00 | 32 | 1012.4 |
| 20260504171515 | 77 | 248 | 8.0 | 14.0 | 0.00 | 0.00 | 0.00 | 33 | 1012.6 |
| 20260504170517 | 77 | 248 | 9.0 | 16.0 | 0.00 | 0.00 | 0.00 | 32 | 1012.3 |
| 20260504150517 | 73 | 270 | 3.0 | 7.0 | 0.00 | 0.00 | 0.00 | 41 | 1012.2 |
| 20260504140537 | 70 | 248 | 2.0 | 3.0 | 0.00 | 0.00 | 0.00 | 45 | 1011.6 |
| 20260504130516 | 0 | 0.0 | 0.0 | 0.00 | 0.00 | 0.00 | |||
| 20260504081037 | 73 | 248 | 3.0 | 7.0 | 0.00 | 0.00 | 0.00 | 41 | 1010.4 |
| 20260504070111 | 72 | 0.0 | 0.0 | 0.00 | 0.00 | 0.00 | 37 | 1010.2 | |
| 20260504050515 | 77 | 270 | 7.0 | 11.0 | 0.00 | 0.00 | 0.00 | 29 | 1010.1 |
| 20260504045537 | 77 | 270 | 9.0 | 13.0 | 0.00 | 0.00 | 0.00 | 28 | 1010.4 |
| 20260504044516 | 77 | 270 | 9.0 | 15.0 | 0.00 | 0.00 | 0.00 | 27 | 1010.3 |
| 20260504043517 | 78 | 270 | 11.0 | 15.0 | 0.00 | 0.00 | 0.00 | 27 | 1010.1 |
| 20260504042519 | 78 | 270 | 11.0 | 15.0 | 0.00 | 0.00 | 0.00 | 26 | 1010.0 |
| 20260504041521 | 78 | 270 | 11.0 | 16.0 | 0.00 | 0.00 | 0.00 | 26 | 1009.8 |
| 20260504040536 | 79 | 248 | 12.0 | 18.0 | 0.00 | 0.00 | 0.00 | 25 | 1009.6 |
| 20260504035516 | 79 | 248 | 7.0 | 12.0 | 0.00 | 0.00 | 0.00 | 23 | 1009.6 |
| 20260504034516 | 79 | 248 | 7.0 | 12.0 | 0.00 | 0.00 | 0.00 | 22 | 1009.1 |
| 20260504033516 | 80 | 248 | 8.0 | 14.0 | 0.00 | 0.00 | 0.00 | 22 | 1008.9 |
| 20260504032515 | 80 | 248 | 7.0 | 11.0 | 0.00 | 0.00 | 0.00 | 21 | 1008.8 |
| 20260504031536 | 81 | 248 | 8.0 | 12.0 | 0.00 | 0.00 | 0.00 | 20 | 1008.7 |
| 20260504030516 | 81 | 248 | 10.0 | 14.0 | 0.00 | 0.00 | 0.00 | 20 | 1008.5 |
| 20260504025515 | 81 | 248 | 11.0 | 16.0 | 0.00 | 0.00 | 0.00 | 20 | 1008.3 |
| 20260504024516 | 82 | 248 | 10.0 | 15.0 | 0.00 | 0.00 | 0.00 | 20 | 1008.1 |
| 20260504023515 | 82 | 248 | 10.0 | 16.0 | 0.00 | 0.00 | 0.00 | 20 | 1007.9 |
| 20260504022536 | 83 | 248 | 11.0 | 19.0 | 0.00 | 0.00 | 0.00 | 20 | 1007.8 |
| 20260504021517 | 84 | 248 | 14.0 | 21.0 | 0.00 | 0.00 | 0.00 | 19 | 1007.6 |
| 20260504020515 | 84 | 248 | 12.0 | 18.0 | 0.00 | 0.00 | 0.00 | 18 | 1007.4 |
| 20260504015516 | 85 | 248 | 8.0 | 15.0 | 0.00 | 0.00 | 0.00 | 17 | 1007.4 |
| 20260504014516 | 85 | 248 | 14.0 | 22.0 | 0.00 | 0.00 | 0.00 | 17 | 1007.3 |
| 20260504013539 | 86 | 248 | 13.0 | 28.0 | 0.00 | 0.00 | 0.00 | 15 | 1007.4 |
| 20260504012517 | 87 | 248 | 16.0 | 24.0 | 0.00 | 0.00 | 0.00 | 15 | 1007.3 |
| 20260504011515 | 88 | 225 | 10.0 | 20.0 | 0.00 | 0.00 | 0.00 | 14 | 1007.3 |
| 20260504010517 | 89 | 248 | 14.0 | 23.0 | 0.00 | 0.00 | 0.00 | 13 | 1007.4 |
| 20260504005515 | 90 | 248 | 16.0 | 21.0 | 0.00 | 0.00 | 0.00 | 12 | 1007.6 |
| 20260504004536 | 90 | 225 | 10.0 | 17.0 | 0.00 | 0.00 | 0.00 | 11 | 1007.6 |
| 20260504003515 | 90 | 248 | 14.0 | 25.0 | 0.00 | 0.00 | 0.00 | 11 | 1007.5 |
| 20260504002516 | 91 | 248 | 11.0 | 20.0 | 0.00 | 0.00 | 0.00 | 11 | 1007.5 |
| 20260504001515 | 92 | 248 | 13.0 | 23.0 | 0.00 | 0.00 | 0.00 | 10 | 1007.4 |
| 20260504000516 | 92 | 248 | 12.0 | 22.0 | 0.00 | 0.00 | 0.00 | 10 | 1007.3 |